User: anonymous   Login
Location: Home
(42.5358°N, 72.7383°W)
Time: 14:42:47
(UTC-05:00)
Language:

Oscar 19 - Orbit

View from above orbital plane
View from above orbital plane
View from above satellite
View from above satellite

Ground track
Ground track

The orbit data is extracted from the following two-line orbital elements,

1 20442U 90005G   22019.45091368  .00000054  00000-0  36439-4 0  9994
2 20442  98.7735 342.2149 0010748 244.4842 115.5230 14.33017014671764
Epoch (UTC): 19 January 2022 10:49:18
Eccentricity: 0.0010748
inclination: 98.7735°
perigee height: 774 km
apogee height: 789 km
right ascension of ascending node: 342.2149°
argument of perigee: 244.4842°
revolutions per day: 14.33017014
mean anomaly at epoch: 115.5230°
orbit number at epoch: 67176

The dashed part of the orbit path shows where the satellite is in the earth's shadow,  

DLR